Погода в Коччи

Индия     9°55′28″N   76°16′14″E
темп.,
°C
ветер,
м/с
пор.,
м/с
влажн.,
%
обл.,
%
осадки,
мм/ч
давл.,
гПа
погр.,
м
14 мая, пт
пт1423:30+26ююв458789 9.9 1009250
02:30+25юв2391100 6.6 1006239
05:30+25юв239196 9.3 1006214
08:30+25юв6997100 24.6 1007532
11:30+26ююв6991100 38.9 1008636
14:30+25юв61095100 5.3 1005625
17:30+27ю91383100 11.0 10041071
20:30+26ю91489100 5.9 10071085
15 мая, сб
сб1523:30+25юв5798100 40.0 1005462
02:30+25ююз81593100 115.9 10031087
05:30+26ю81293100 134.6 1002931
08:30+27ю61090100 49.9 1005722
11:30+24ююв4797100 111.3 1005438
14:30+26ююз4793100 19.2 1003593
17:30+24вюв3598100 67.4 1002294
20:30+25ююз6993100 76.4 1007645
16 мая, вс
вс1623:30+26ююз4592100 104.9 1007474
02:30+26юз5995100 35.8 1004648
05:30+25ююв71196100 67.8 1004732
08:30+25ююз81196100 79.4 1006780
11:30+25ю5794100 110.0 1008443
14:30+25вюв3596100 33.3 1006330
17:30+25зсз1290100 36.1 1006220
20:30+25зюз2392100 1.8 1008282
17 мая, пн
пн1723:30+25ююв2294100 7.4 1008215
02:30+25ююв3494100 3.8 1006255
05:30+25ю4691100 8.5 1006479
08:30+26юз5892100 7.3 1009577
11:30+26юз3688100 14.6 1009352
14:30+27ю468898 6.8 1006525
17:30+26юз3591100 20.8 1006326
20:30+25ююв2491100 2.0 1008226
18 мая, вт
вт1823:30+25вюв349297 3.9 1008200
02:30+25юв3591100 0.1 1005263
05:30+25юв4690100 0.3 1006333
08:30+27ююв4685100 1.1 1008456
11:30+28ю3378100 3.6 1008606
14:30+29ююз4473100 0.4 1005677
17:30+28ююз3378100 0.7 1006564
20:30+27ю2285100 1.6 1008266